Weather History for Monterey, CA

Change the Weather History Date:

Sunday, August 5, 2012

  Actual Average Record
Temperature  
Mean Temperature 61 °F 61 °F  
Max Temperature 65 °F 68 °F 77 °F (2003)
Min Temperature 56 °F 54 °F 51 °F (2005)
Degree Days  
Heating Degree Days 4    
Month to date heating degree days 32  
Since 1 June heating degree days 350  
Since 1 July heating degree days 181  
Cooling Degree Days 0    
Month to date cooling degree days 0  
Year to date cooling degree days 0  
Since 1 June cooling degree days 0  
Growing Degree Days 10 (Base 50)    
Moisture  
Dew Point 54 °F    
Average Humidity 80    
Maximum Humidity 93    
Minimum Humidity 67    
Precipitation  
Precipitation 0.01 in - 0.01 in (2010)
Month to date precipitation 0.02  
Year to date precipitation 7.72  
Since 1 July precipitation 0.07  
Sea Level Pressure  
Sea Level Pressure 30.08 in    
Wind  
Wind Speed 5 mph (West)    
Max Wind Speed 18 mph    
Max Gust Speed 28 mph    
Visibility 9 miles    
Events      
T = Trace of Precipitation, MM = Missing Value Source: NWS Daily Summary

Daily Weather History Graph

Daily Weather History Graph

Search for Another Location

Airport:

Trip Planner

Search our weather history database for the weather conditions in past years. The results will help you decide how hot, cold, wet, or windy it might be!

Date:

Astronomy

Aug. 05, 2012 Rise Set
Actual Time 6:17 AM PDT 8:08 PM PDT
Civil Twilight 5:49 AM PDT 8:36 PM PDT
Nautical Twilight 5:14 AM PDT 9:10 PM PDT
Astronomical Twilight 4:38 AM PDT 9:47 PM PDT
Moon 9:59 PM PDT (8/5) 10:03 AM PDT (8/5)
Length of Visible Light 14h 47m
Length of Day
13h 51m
Waning Gibbous, 85% of the Moon is Illuminated
Aug 5
Waning Gibbous
Aug 9
Last Quarter
Aug 17
New
Aug 24
First Quarter
Aug 31
Full

Hourly Weather History & Observations

Time (PDT) Temp. Dew Point Humidity Pressure Visibility Wind Dir Wind Speed Gust Speed Precip Events Conditions
12:54 AM 57.9 °F 55.0 °F 90% 30.04 in 10.0 mi West 4.6 mph - N/A   Overcast
1:54 AM 57.9 °F 55.0 °F 90% 30.04 in 10.0 mi WSW 3.5 mph - N/A   Overcast
2:54 AM 57.9 °F 55.0 °F 90% 30.04 in 10.0 mi Calm Calm - N/A   Overcast
3:14 AM 57.2 °F 55.4 °F 94% 30.00 in 10.0 mi WNW 3.5 mph - N/A   Overcast
3:54 AM 57.0 °F 55.0 °F 93% 30.03 in 10.0 mi SW 5.8 mph - N/A   Overcast
4:54 AM 57.0 °F 55.0 °F 93% 30.03 in 9.0 mi SSW 3.5 mph - N/A   Overcast
5:43 AM 57.2 °F 55.4 °F 94% 30.00 in 2.0 mi Calm Calm - N/A   Overcast
5:54 AM 57.0 °F 55.9 °F 96% 30.04 in 2.0 mi WNW 3.5 mph - N/A   Overcast
6:31 AM 57.2 °F 55.4 °F 94% 30.01 in 2.0 mi Calm Calm - N/A   Overcast
6:54 AM 57.0 °F 55.9 °F 96% 30.05 in 2.0 mi Calm Calm - 0.01 in   Overcast
7:18 AM 57.2 °F 55.4 °F 94% 30.02 in 5.0 mi Calm Calm - N/A   Overcast
7:54 AM 57.0 °F 55.9 °F 96% 30.07 in 6.0 mi Calm Calm - N/A   Overcast
8:54 AM 57.0 °F 55.9 °F 96% 30.09 in 7.0 mi Calm Calm - N/A   Overcast
9:54 AM 59.0 °F 55.9 °F 90% 30.11 in 10.0 mi WNW 4.6 mph - N/A   Overcast
10:54 AM 60.1 °F 55.0 °F 83% 30.12 in 10.0 mi West 4.6 mph - N/A   Overcast
11:01 AM 60.8 °F 55.4 °F 82% 30.08 in 10.0 mi WNW 4.6 mph - N/A   Overcast
11:14 AM 60.8 °F 55.4 °F 82% 30.09 in 9.0 mi NW 5.8 mph - N/A   Overcast
11:54 AM 60.1 °F 55.0 °F 83% 30.13 in 6.0 mi WNW 5.8 mph - N/A   Haze
12:36 PM 60.8 °F 53.6 °F 77% 30.09 in 10.0 mi NW 6.9 mph - N/A   Overcast
12:54 PM 61.0 °F 54.0 °F 78% 30.13 in 10.0 mi NW 8.1 mph - N/A   Overcast
1:37 PM 62.6 °F 53.6 °F 72% 30.08 in 10.0 mi WNW 9.2 mph - N/A   Scattered Clouds
1:54 PM 63.0 °F 54.0 °F 72% 30.11 in 10.0 mi Variable 6.9 mph - N/A   Partly Cloudy
2:54 PM 64.0 °F 54.0 °F 70% 30.11 in 10.0 mi NW 9.2 mph - N/A   Clear
3:54 PM 63.0 °F 54.0 °F 72% 30.09 in 10.0 mi WNW 11.5 mph - N/A   Clear
4:54 PM 64.0 °F 54.0 °F 70% 30.10 in 10.0 mi WNW 8.1 mph - N/A   Clear
5:54 PM 63.0 °F 53.1 °F 70% 30.09 in 10.0 mi WNW 8.1 mph - N/A   Clear
6:54 PM 62.1 °F 53.1 °F 72% 30.10 in 10.0 mi West 8.1 mph - N/A   Clear
7:54 PM 60.1 °F 53.1 °F 78% 30.10 in 10.0 mi Variable 4.6 mph 21.9 mph N/A   Clear
8:54 PM 57.9 °F 53.1 °F 84% 30.12 in 10.0 mi WSW 6.9 mph - N/A   Partly Cloudy
9:10 PM 57.2 °F 53.6 °F 88% 30.08 in 10.0 mi WSW 6.9 mph - N/A   Mostly Cloudy
9:54 PM 57.9 °F 53.1 °F 84% 30.13 in 10.0 mi WSW 6.9 mph - N/A   Overcast
10:38 PM 57.2 °F 53.6 °F 88% 30.10 in 10.0 mi South 3.5 mph - N/A   Scattered Clouds
10:54 PM 57.0 °F 53.1 °F 87% 30.14 in 10.0 mi SSW 3.5 mph - N/A   Partly Cloudy
11:40 PM 55.4 °F 53.6 °F 94% 30.10 in 10.0 mi SSW 4.6 mph - N/A   Mostly Cloudy
11:54 PM 55.9 °F 53.1 °F 90% 30.13 in 10.0 mi SSW 4.6 mph - N/A   Overcast